When you browse on this site, cookies collect data to enhance your experience and personalize the content and advertising you see.
Visit our Privacy Policy to learn more. By continuing to use the site, you agree to this use of cookies and data.
  • In Slovakia
  • List of Countries
  • For 7 days
  • Water Temperature
  • Satellite Maps
  • Weather Map
  • Weather Widgets
  • user-avatar
    Login

    Hourly Weather Cwiklice

    Today, 17 December, Monday

    Time Temperature Precipitation Wind Pressure Humidity
    00:00 -5°C° 0 mm 2 mps 742 mmHg 85%
    01:00 -5°C° 0 mm 2 mps 742 mmHg 85%
    02:00 -5°C° 0 mm 2 mps 742 mmHg 84%
    03:00 -5°C° 0 mm 2 mps 742 mmHg 83%
    04:00 -5°C° 0 mm 2 mps 742 mmHg 82%
    05:00 -5°C° 0 mm 2 mps 742 mmHg 82%
    06:00 -5°C° 0 mm 2 mps 742 mmHg 82%
    07:00 -3°C° 0 mm 1 mps 742 mmHg 83%
    08:00 -4°C° 0 mm 2 mps 742 mmHg 81%
    09:00 -3°C° 0 mm 2 mps 743 mmHg 79%
    10:00 -2°C° 0 mm 2 mps 743 mmHg 77%
    11:00 -2°C° 0 mm 2 mps 743 mmHg 77%
    12:00 +1°C° 0 mm 1 mps 743 mmHg 76%
    13:00 +2°C° 0 mm 1 mps 743 mmHg 76%
    14:00 +1°C° 0 mm 1 mps 744 mmHg 80%
    15:00 0°C° 0 mm 1 mps 744 mmHg 84%
    16:00 -1°C° 0 mm 1 mps 744 mmHg 88%
    17:00 -1°C° 0 mm 1 mps 745 mmHg 88%
    18:00 -1°C° 0 mm 1 mps 745 mmHg 89%
    19:00 -1°C° 0 mm 1 mps 746 mmHg 89%
    20:00 -1°C° 0 mm 1 mps 746 mmHg 89%
    21:00 -1°C° 0 mm 1 mps 747 mmHg 89%
    22:00 -1°C° 0 mm 1 mps 747 mmHg 89%
    23:00 -1°C° 0 mm 1 mps 747 mmHg 89%

    Tomorrow, 18 December, Tuesday

    Time Temperature Precipitation Wind Pressure Humidity
    00:00 -1°C° 0 mm 1 mps 747 mmHg 90%
    01:00 0°C° 0 mm 1 mps 748 mmHg 90%
    02:00 0°C° 0 mm 1 mps 748 mmHg 89%
    03:00 0°C° 0 mm 1 mps 748 mmHg 89%
    04:00 0°C° 0 mm 1 mps 748 mmHg 89%
    05:00 0°C° 0 mm 1 mps 748 mmHg 89%
    06:00 -1°C° 0 mm 1 mps 748 mmHg 89%
    07:00 -1°C° 0 mm 1 mps 748 mmHg 89%
    08:00 0°C° 0 mm 1 mps 748 mmHg 87%
    09:00 +1°C° 0 mm 1 mps 748 mmHg 85%
    10:00 +2°C° 0 mm 1 mps 749 mmHg 83%
    11:00 +2°C° 0 mm 1 mps 748 mmHg 83%
    12:00 +3°C° 0 mm 1 mps 748 mmHg 82%
    13:00 +2°C° 0 mm 0 mps 748 mmHg 82%
    14:00 +1°C° 0 mm 0 mps 748 mmHg 84%
    15:00 +1°C° 0 mm 1 mps 747 mmHg 86%
    16:00 0°C° 0 mm 1 mps 747 mmHg 88%
    17:00 0°C° 0 mm 1 mps 747 mmHg 88%
    18:00 0°C° 0 mm 1 mps 747 mmHg 89%
    19:00 -2°C° 0 mm 2 mps 747 mmHg 89%
    20:00 -2°C° 0 mm 2 mps 747 mmHg 89%
    21:00 -3°C° 0 mm 2 mps 747 mmHg 89%
    22:00 -3°C° 0 mm 2 mps 747 mmHg 89%
    23:00 -3°C° 0 mm 2 mps 747 mmHg 88%

    Day after tomorrow, 19 December, Wednesday

    Time Temperature Precipitation Wind Pressure Humidity
    00:00 -3°C° 0 mm 2 mps 747 mmHg 88%
    01:00 -3°C° 0 mm 2 mps 746 mmHg 87%
    02:00 -3°C° 0 mm 2 mps 746 mmHg 87%
    03:00 -3°C° 0 mm 2 mps 746 mmHg 86%
    04:00 -3°C° 0 mm 2 mps 745 mmHg 85%
    05:00 -3°C° 0 mm 2 mps 745 mmHg 84%
    06:00 -4°C° 0 mm 2 mps 745 mmHg 83%
    07:00 -4°C° 0 mm 2 mps 745 mmHg 82%
    08:00 -3°C° 0 mm 2 mps 745 mmHg 79%
    09:00 -2°C° 0 mm 2 mps 745 mmHg 76%
    10:00 -1°C° 0 mm 2 mps 745 mmHg 72%
    11:00 +1°C° 0 mm 2 mps 745 mmHg 71%
    12:00 +1°C° 0 mm 2 mps 745 mmHg 71%
    13:00 +2°C° 0 mm 2 mps 745 mmHg 70%
    14:00 +1°C° 0 mm 2 mps 745 mmHg 73%
    15:00 -1°C° 0 mm 2 mps 744 mmHg 76%
    16:00 -2°C° 0 mm 2 mps 744 mmHg 80%
    17:00 -2°C° 0 mm 2 mps 744 mmHg 80%
    18:00 -2°C° 0 mm 2 mps 744 mmHg 81%
    19:00 -3°C° 0 mm 2 mps 744 mmHg 82%
    20:00 -3°C° 0 mm 2 mps 744 mmHg 81%
    21:00 -3°C° 0 mm 2 mps 744 mmHg 80%
    22:00 -3°C° 0 mm 2 mps 744 mmHg 79%
    23:00 -3°C° 0 mm 2 mps 744 mmHg 79%

    20 December, Thursday

    Time Temperature Precipitation Wind Pressure Humidity
    00:00 -3°C° 0 mm 2 mps 744 mmHg 78%
    01:00 -1°C° 0 mm 1 mps 744 mmHg 77%
    02:00 -1°C° 0 mm 1 mps 743 mmHg 76%
    03:00 -1°C° 0 mm 1 mps 743 mmHg 76%
    04:00 0°C° 0 mm 1 mps 743 mmHg 75%
    05:00 0°C° 0 mm 1 mps 743 mmHg 75%
    06:00 0°C° 0 mm 1 mps 743 mmHg 75%
    07:00 0°C° 0 mm 1 mps 743 mmHg 75%
    08:00 +1°C° 0 mm 1 mps 743 mmHg 75%
    09:00 +1°C° 0 mm 1 mps 743 mmHg 75%
    10:00 +2°C° 0 mm 1 mps 743 mmHg 75%
    11:00 +1°C° 0 mm 2 mps 743 mmHg 75%
    12:00 +1°C° 0 mm 2 mps 743 mmHg 75%
    13:00 +2°C° 0 mm 2 mps 742 mmHg 76%
    14:00 +1°C° 0 mm 2 mps 742 mmHg 78%
    15:00 +1°C° 0 mm 2 mps 742 mmHg 81%
    16:00 +1°C° 0 mm 1 mps 742 mmHg 83%
    17:00 +1°C° 0.1 mm 1 mps 742 mmHg 85%
    18:00 +1°C° 0.1 mm 1 mps 742 mmHg 86%
    19:00 +1°C° 0.1 mm 1 mps 742 mmHg 87%
    20:00 +1°C° 0.1 mm 1 mps 742 mmHg 88%
    21:00 +1°C° 0.1 mm 1 mps 742 mmHg 89%
    22:00 +1°C° 0.1 mm 1 mps 742 mmHg 90%
    23:00 -1°C° 0.1 mm 2 mps 742 mmHg 90%

    21 December, Friday

    Time Temperature Precipitation Wind Pressure Humidity
    00:00 -1°C° 0.1 mm 2 mps 742 mmHg 90%
    01:00 -1°C° 0.1 mm 2 mps 742 mmHg 90%
    02:00 -1°C° 0.2 mm 2 mps 742 mmHg 91%
    03:00 -1°C° 0.2 mm 2 mps 741 mmHg 92%
    04:00 -1°C° 0.2 mm 2 mps 741 mmHg 93%
    05:00 -1°C° 0.3 mm 2 mps 741 mmHg 93%
    06:00 -1°C° 0.3 mm 2 mps 741 mmHg 94%
    07:00 -1°C° 0.3 mm 2 mps 741 mmHg 95%
    08:00 -1°C° 0.4 mm 2 mps 741 mmHg 94%
    09:00 -1°C° 0.4 mm 2 mps 741 mmHg 94%
    10:00 -1°C° 0.4 mm 2 mps 742 mmHg 93%
    11:00 +1°C° 0.3 mm 2 mps 741 mmHg 93%
    12:00 +1°C° 0.3 mm 2 mps 741 mmHg 93%
    13:00 +1°C° 0.3 mm 2 mps 741 mmHg 93%
    14:00 +1°C° 0.1 mm 2 mps 741 mmHg 93%
    15:00 +1°C° 0.1 mm 2 mps 741 mmHg 93%
    16:00 +1°C° 0.1 mm 2 mps 741 mmHg 93%
    17:00 -1°C° 0 mm 2 mps 741 mmHg 93%
    18:00 -1°C° 0 mm 2 mps 741 mmHg 92%
    19:00 -2°C° 0 mm 2 mps 741 mmHg 92%
    20:00 -2°C° 0 mm 2 mps 740 mmHg 91%
    21:00 -1°C° 0 mm 2 mps 740 mmHg 91%
    22:00 -1°C° 0 mm 2 mps 740 mmHg 90%
    23:00 -1°C° 0 mm 2 mps 740 mmHg 89%

    22 December, Saturday

    Time Temperature Precipitation Wind Pressure Humidity
    00:00 -1°C° 0 mm 2 mps 739 mmHg 88%
    01:00 -1°C° 0 mm 2 mps 739 mmHg 87%
    02:00 +1°C° 0.2 mm 2 mps 738 mmHg 87%
    03:00 0°C° 0.2 mm 3 mps 738 mmHg 87%
    04:00 0°C° 0.2 mm 3 mps 737 mmHg 86%
    05:00 0°C° 0.7 mm 3 mps 737 mmHg 87%
    06:00 +1°C° 0.7 mm 3 mps 737 mmHg 88%
    07:00 0°C° 0.7 mm 4 mps 737 mmHg 89%
    08:00 0°C° 0.5 mm 4 mps 737 mmHg 90%
    09:00 +1°C° 0.5 mm 4 mps 737 mmHg 91%
    10:00 +1°C° 0.5 mm 5 mps 737 mmHg 91%
    11:00 +1°C° 0.2 mm 5 mps 737 mmHg 92%
    12:00 +2°C° 0.2 mm 5 mps 737 mmHg 92%
    13:00 +2°C° 0.2 mm 5 mps 737 mmHg 93%
    14:00 +2°C° 0.2 mm 5 mps 737 mmHg 92%
    15:00 +3°C° 0.2 mm 4 mps 737 mmHg 92%
    16:00 +3°C° 0.2 mm 4 mps 737 mmHg 92%
    17:00 +3°C° 0.3 mm 4 mps 737 mmHg 93%
    18:00 +3°C° 0.3 mm 4 mps 737 mmHg 93%
    19:00 +3°C° 0.3 mm 4 mps 738 mmHg 93%
    20:00 +3°C° 0.3 mm 4 mps 738 mmHg 93%
    21:00 +3°C° 0.3 mm 4 mps 738 mmHg 93%
    22:00 +3°C° 0.3 mm 4 mps 738 mmHg 93%
    23:00 +3°C° 0.5 mm 4 mps 738 mmHg 93%
    Show more